Fort Lewis, WA
on Saturday, November 3, 2012

Saturday
Previous Day Next Day
Daily Summary
 ActualAverage (KOLM)Record (KOLM)
Temperature
Mean Temperature °F 46°F  
Max Temperature 60°F 54°F 71°F (1949)
Min Temperature 51°F 38°F 18°F (2002)
Degree Days
Heating Degree Days 10 19  
Month to date heating degree days 56  
Since 1 July heating degree days 850  
Cooling Degree Days 0 0  
Month to date cooling degree days 0  
Year to date cooling degree days 106  
Growing Degree Days6 (Base °F )  
Moisture
Dew Point 53°F   
Average Humidity 95    
Maximum Humidity 100    
Minimum Humidity 75    
Precipitation
Precipitation 0.01 in 0.25 in 1.83 in (1983)
Month to date precipitation 0.73  
Year to date precipitation 34.64  
Wind
Wind Speed 3 mph   
Max Wind Speed 17 mph   
Max Gust Speed 22 mph   
Visibility 10 miles   
Events Rain   

Key: T is trace of precipitation, MM is missing value
Source: NWS Daily Summary
Time(PDT)TemperatureDew PointHumidity Pressure Visibility Wind DirectionWind SpeedGust SpeedPrecipitationEvents Conditions
12:03 AM 51.8°F 51.8°F 100% 29.97 in 9.0 miles North 1.2 mph - N/A   Overcast
12:08 AM 51.8°F 51.8°F 100% 29.97 in 10.0 miles Calm Calm - N/A   Overcast
12:13 AM 51.8°F 51.8°F 100% 29.97 in 10.0 miles Calm Calm - N/A   Overcast
12:33 AM 51.8°F 51.8°F 100% 29.97 in 8.0 miles Calm Calm - N/A   Overcast
12:35 AM 51.8°F 51.8°F 100% 29.97 in 7.0 miles Variable 1.2 mph - N/A   Light Drizzle
12:40 AM 51.8°F 51.8°F 100% 29.97 in 6.0 miles North 2.3 mph - N/A   Light Drizzle
12:49 AM 51.8°F 51.8°F 100% 29.96 in 7.0 miles NNE 2.3 mph - N/A   Overcast
12:58 AM 52.7°F 52.3°F 99% 29.99 in 9.0 miles North 1.2 mph - 0.00 in   Overcast
1:03 AM 53.6°F 51.8°F 94% 29.97 in 10.0 miles SW 1.2 mph - N/A   Overcast
1:07 AM 51.8°F 51.8°F 100% 29.97 in 8.0 miles WSW 1.2 mph - N/A   Light Drizzle
1:18 AM 53.6°F 51.8°F 94% 29.97 in 10.0 miles Calm Calm - N/A   Overcast
1:29 AM 53.6°F 51.8°F 94% 29.97 in 10.0 miles Calm Calm - N/A   Overcast
1:49 AM 53.6°F 51.8°F 94% 29.97 in 9.0 miles ENE 2.3 mph - N/A   Overcast
1:55 AM 53.6°F 51.8°F 94% 29.97 in 8.0 miles ENE 2.3 mph - N/A   Light Drizzle
1:58 AM 52.9°F 52.5°F 99% 29.99 in 8.0 miles ENE 2.3 mph - 0.00 in   Light Drizzle
2:06 AM 53.6°F 51.8°F 94% 29.97 in 10.0 miles ENE 1.2 mph - N/A   Overcast
2:11 AM 53.6°F 51.8°F 94% 29.97 in 10.0 miles Calm Calm - N/A   Overcast
2:33 AM 51.8°F 51.8°F 100% 29.97 in 9.0 miles Calm Calm - N/A Rain Light Rain
2:43 AM 51.8°F 51.8°F 100% 29.97 in 9.0 miles South 2.3 mph - N/A   Overcast
2:48 AM 51.8°F 51.8°F 100% 29.97 in 10.0 miles South 2.3 mph - N/A   Overcast
2:58 AM 52.5°F 52.3°F 99% 29.99 in 10.0 miles SSE 2.3 mph - 0.00 in   Overcast
3:00 AM 51.8°F 51.8°F 100% 29.97 in 10.0 miles SSE 2.3 mph - N/A   Light Drizzle
3:09 AM 51.8°F 51.8°F 100% 29.97 in 10.0 miles ESE 2.3 mph - N/A   Overcast
3:58 AM 52.5°F 52.3°F 99% 29.99 in 10.0 miles ESE 3.5 mph - 0.01 in   Overcast
4:08 AM 53.6°F 51.8°F 94% 29.98 in 10.0 miles ESE 2.3 mph - N/A   Overcast
4:13 AM 53.6°F 51.8°F 94% 29.98 in 10.0 miles SE 3.5 mph - N/A   Overcast
4:58 AM 52.5°F 52.3°F 99% 30.01 in 10.0 miles SSE 1.2 mph - N/A   Overcast
5:58 AM 52.3°F 52.2°F 99% 30.01 in 10.0 miles SE 1.2 mph - N/A   Overcast
6:58 AM 52.3°F 52.0°F 99% 30.01 in 10.0 miles SE 5.8 mph - N/A   Overcast
7:08 AM 51.8°F 51.8°F 100% 30.00 in 10.0 miles SE 5.8 mph - N/A   Overcast
7:58 AM 52.3°F 52.2°F 99% 30.03 in 10.0 miles SE 6.9 mph - N/A   Overcast
8:43 AM 53.6°F 53.6°F 100% 30.03 in 10.0 miles SSE 6.9 mph - N/A   Overcast
8:48 AM 53.6°F 53.6°F 100% 30.03 in 10.0 miles SE 8.1 mph - N/A   Overcast
8:58 AM 53.4°F 53.1°F 99% 30.04 in 10.0 miles SE 9.2 mph - N/A   Overcast
9:58 AM 54.7°F 54.1°F 98% 30.04 in 10.0 miles SE 5.8 mph - N/A   Overcast
10:58 AM 56.3°F 54.1°F 92% 30.06 in 10.0 miles SE 4.6 mph - N/A   Overcast
11:58 AM 58.3°F 54.9°F 88% 30.06 in 10.0 miles SSE 9.2 mph - N/A   Overcast
12:58 PM 59.0°F 54.3°F 84% 30.06 in 10.0 miles SSE 15.0 mph 21.9 mph N/A   Overcast
1:13 PM 59.0°F 53.6°F 82% 30.05 in 10.0 miles SSE 17.3 mph 21.9 mph N/A   Mostly Cloudy
1:58 PM 60.4°F 53.6°F 78% 30.06 in 10.0 miles SSE 13.8 mph 19.6 mph N/A   Mostly Cloudy
2:53 PM 60.8°F 53.6°F 77% 30.06 in 10.0 miles South 15.0 mph 21.9 mph N/A   Mostly Cloudy
2:58 PM 60.8°F 52.9°F 75% 30.07 in 10.0 miles South 13.8 mph 21.9 mph N/A   Overcast
3:58 PM 59.5°F 53.8°F 81% 30.10 in 10.0 miles South 15.0 mph 20.7 mph N/A   Overcast
4:28 PM 59.0°F 55.4°F 88% 30.11 in 10.0 miles South 8.1 mph - N/A   Overcast
4:33 PM 59.0°F 55.4°F 88% 30.11 in 10.0 miles SSE 10.4 mph - N/A   Overcast
4:53 PM 57.2°F 55.4°F 94% 30.11 in 10.0 miles SSE 8.1 mph - N/A   Overcast
4:58 PM 57.9°F 55.0°F 90% 30.12 in 10.0 miles SSE 9.2 mph - N/A   Overcast
5:58 PM 57.6°F 54.9°F 91% 30.14 in 10.0 miles SSE 5.8 mph - N/A   Overcast
6:29 PM 57.2°F 55.4°F 94% 30.15 in 9.0 miles South 3.5 mph - N/A   Light Drizzle
6:34 PM 57.2°F 55.4°F 94% 30.15 in 9.0 miles South 3.5 mph - N/A   Light Drizzle
6:38 PM 57.2°F 55.4°F 94% 30.15 in 10.0 miles South 3.5 mph - N/A   Overcast
6:43 PM 57.2°F 55.4°F 94% 30.15 in 10.0 miles SSW 3.5 mph - N/A   Overcast
6:53 PM 57.2°F 55.4°F 94% 30.15 in 10.0 miles South 2.3 mph - N/A   Overcast
6:58 PM 56.8°F 55.2°F 94% 30.17 in 10.0 miles SSE 2.3 mph - 0.00 in   Overcast
7:28 PM 57.2°F 55.4°F 94% 30.16 in 10.0 miles SSE 3.5 mph - N/A   Overcast
7:58 PM 56.3°F 55.0°F 96% 30.17 in 10.0 miles SE 4.6 mph - N/A   Mostly Cloudy
8:58 PM 55.6°F 54.9°F 97% 30.15 in 10.0 miles South 4.6 mph - N/A   Overcast
9:58 PM 54.9°F 54.3°F 98% 30.17 in 10.0 miles SSE 4.6 mph - N/A   Overcast
10:58 PM 55.6°F 54.0°F 94% 30.17 in 10.0 miles ENE 1.2 mph - N/A   Overcast
11:58 PM 54.5°F 54.1°F 99% 30.19 in 10.0 miles SE 3.5 mph - N/A   Overcast
Moon Phase
Nov. 03 Nov. 06 Nov. 13 Nov. 20 Nov. 28
Sunrise:07:57 AM (PDT) Moon Rise:09:30 PM (PDT)11/3
Sunset:05:50 PM (PDT) Moon Set:12:11 PM (PDT)11/3

Copyright © 2014 The Weather Underground, Inc.